Home > Weather > Qyzylorda > Past weeks

Flag for Kazakhstan Weather for the Past 2 Weeks in Qyzylorda, Kazakhstan

Now
64 °F

Partly sunny.


Feels Like: 64 °F
Forecast: 56 / 74 °F
Wind: 8 mph from East

Location: Kzyl-Orda

Current Time: Apr 29, 2016 at 8:00:57 PM

Latest Report: Apr 29, 2016 at 7:30 PM


Visibility: N/A

Pressure: 30.04 "Hg

Humidity: 43%

Dew Point: 41 °F

Location of QyzylordaLocation

Historic Weather in Qyzylorda — Graph

°F

Qyzylorda Temperature Yesterday

Maximum temperature yesterday: 79 °F (at 4:30 PM)
Minimum temperature yesterday: 57 °F (at 5:00 AM)
Average temperature yesterday: 68 °F

High & Low Weather Summary for the Past Weeks

 TemperatureHumidityPressure
High82 °F (Apr 15, 5:00 PM)100% (Apr 18, 12:00 AM)30.21 "Hg (Apr 18, 12:00 AM)
Low46 °F (Apr 24, 4:00 AM)13% (Apr 16, 5:00 PM)29.59 "Hg (Apr 17, 5:00 AM)
Average65 °F49%29.96 "Hg
* Reported Apr 14 7:00 PM — Apr 29 7:00 PM, Qyzylorda, Weather by CustomWeather, © 2016

Note: Actual official high and low records may vary slightly from our data, if they occured in-between our weather recording intervals... More about our weather records

Advertising

Qyzylorda Weather History for the Previous 24 Hours

Scroll right to see more
 ConditionsComfort  
Time TempWeatherWind HumidityBarometerVisibility
7:00 PM
Fri, Apr 29
64 °FOvercast.10 mph40%30.04 "HgN/A
6:30 PM64 °FOvercast.8 mph40%30.04 "HgN/A
6:00 PM64 °FOvercast.8 mph40%30.04 "HgN/A
5:30 PM64 °FOvercast.8 mph43%30.04 "HgN/A
5:00 PM66 °FOvercast.10 mph40%30.01 "HgN/A
4:30 PM66 °FOvercast.17 mph37%30.01 "HgN/A
4:00 PM66 °FOvercast.17 mph37%30.01 "HgN/A
3:30 PM66 °FOvercast.15 mph37%30.01 "HgN/A
3:00 PM64 °FSprinkles. Overcast.15 mph40%30.01 "Hg6 mi
2:30 PM64 °FOvercast.17 mph43%29.98 "HgN/A
2:00 PM64 °FOvercast.15 mph46%29.98 "HgN/A
1:30 PM63 °FSprinkles. Overcast.15 mph49%29.98 "Hg6 mi
1:00 PM63 °FSprinkles. Overcast.15 mph49%30.01 "Hg6 mi
12:30 PM63 °FOvercast.13 mph45%30.01 "HgN/A
12:00 PM63 °FSprinkles. Overcast.10 mph45%30.01 "Hg6 mi
11:30 AM61 °FPartly sunny.8 mph48%30.01 "HgN/A
10:30 AM61 °FPartly sunny.13 mph42%29.98 "HgN/A
10:00 AM59 °FPartly sunny.10 mph55%29.98 "HgN/A
9:30 AM59 °FPartly sunny.10 mph55%29.98 "HgN/A
8:30 AM57 °FSunny.10 mph63%29.95 "Hg10 mi
8:00 AM55 °FSunny.10 mph67%29.92 "Hg10 mi
7:30 AM55 °FSunny.8 mph67%29.92 "Hg10 mi
7:00 AM54 °FClear.8 mph77%29.92 "Hg10 mi
6:30 AM54 °FPassing clouds.8 mph72%29.92 "HgN/A
6:00 AM54 °FPassing clouds.6 mph77%29.92 "HgN/A
5:30 AM54 °FPassing clouds.6 mph77%29.89 "HgN/A
5:00 AM55 °FPassing clouds.6 mph72%29.89 "HgN/A
4:00 AM57 °FPassing clouds.8 mph67%29.89 "HgN/A
3:00 AM59 °FPassing clouds.8 mph68%29.86 "HgN/A
2:00 AM59 °FPassing clouds.13 mph63%29.86 "HgN/A
1:00 AM59 °FPassing clouds.10 mph68%29.86 "HgN/A
12:00 AM63 °FPassing clouds.13 mph68%29.86 "HgN/A
11:00 PM
Thu, Apr 28
68 °FPassing clouds.10 mph49%29.86 "HgN/A
10:00 PM68 °FPassing clouds.6 mph49%29.83 "HgN/A
9:00 PM70 °FPartly sunny.8 mph43%29.83 "HgN/A
8:00 PM73 °FSunny.10 mph38%29.80 "Hg10 mi
Weather by CustomWeather, © 2016

See weather overviewHow to use our weather pages